Location: Runa
(38.1429°N, 80.8510°W)
Time: 23:31:35
(UTC+00:00)

ISS - Pass Details

Date: 15 April 2026
Orbit: 414 x 424 km, 51.6° (Epoch: 15 May)

Event Time Altitude Azimuth Distance (km) Brightness Sun altitude
Exits shadow 10:20:20 - 209° (SSW) 2,300 -0.4 -6.0°
Reaches altitude 10° 10:22:24 10° 200° (SSW) 1,488 -1.3 -5.6°
Maximum altitude 10:25:28 33° 134° (SE) 720 -2.2 -5.1°
Drops below altitude 10° 10:28:33 10° 68° (ENE) 1,504 1.0 -4.5°
Sets 10:30:46 0° 59° (ENE) 2,374 2.0 -4.1°
